Weather History for KGMU - January, 2013

Change the Weather History Date:

Friday, January 11, 2013

  Actual Average Record
Temperature  
Mean Temperature 54 °F -  
Max Temperature 57 °F 50 °F 69 °F (2000)
Min Temperature 50 °F 33 °F 19 °F (1997)
Degree Days  
Heating Degree Days 12    
Growing Degree Days 4 (Base 50)    
Moisture  
Dew Point 49 °F    
Average Humidity 93    
Maximum Humidity 96    
Minimum Humidity 88    
Precipitation  
Precipitation 0.32 in - - ()
Sea Level Pressure  
Sea Level Pressure 30.24 in    
Wind  
Wind Speed 7 mph (NE)    
Max Wind Speed 10 mph    
Max Gust Speed -    
Visibility 3 miles    
Events Rain    
Averages and records for this station are not official NWS values.
T = Trace of Precipitation, MM = Missing Value Source: NWS Daily Summary

Daily Weather History Graph

Daily Weather History Graph

Search for Another Location

Airport or City:

Trip Planner

Search our weather history database for the weather conditions in past years. The results will help you decide how hot, cold, wet, or windy it might be!

Date:

Astronomy

Jan. 11, 2013 Rise Set
Actual Time 7:37 AM EST 5:37 PM EST
Civil Twilight 7:09 AM EST 6:05 PM EST
Nautical Twilight 6:38 AM EST 6:36 PM EST
Astronomical Twilight 6:08 AM EST 7:07 PM EST
Moon 7:10 AM EST (1/11) 5:52 PM EST (1/11)
Length of Visible Light 10h 55m
Length of Day
10h 00m
Waning Crescent, 0% of the Moon is Illuminated
Jan 11
Waning Crescent
Jan 11
New
Jan 18
First Quarter
Jan 26
Full
Feb 3
Last Quarter

Hourly Weather History & Observations

Time (EST) Temp. Dew Point Humidity Pressure Visibility Wind Dir Wind Speed Gust Speed Precip Events Conditions
12:09 AM 57.2 °F 53.6 °F 88% 30.35 in 3.0 mi East 6.9 mph - 0.00 in   Overcast
12:25 AM 55.4 °F 53.6 °F 94% 30.34 in 4.0 mi ENE 6.9 mph - 0.00 in   Overcast
12:53 AM 55.9 °F 54.0 °F 93% 30.32 in 10.0 mi NE 6.9 mph - 0.00 in   Overcast
1:53 AM 55.0 °F 53.1 °F 93% 30.31 in 7.0 mi NE 6.9 mph - N/A   Overcast
2:16 AM 55.4 °F 53.6 °F 94% 30.31 in 6.0 mi NE 9.2 mph - N/A   Overcast
2:49 AM 53.6 °F 51.8 °F 94% 30.30 in 2.0 mi ENE 6.9 mph - 0.00 in Rain Light Rain
2:53 AM 53.1 °F 52.0 °F 96% 30.30 in 1.8 mi ENE 8.1 mph - 0.00 in   Overcast
3:53 AM 51.1 °F 50.0 °F 96% 30.27 in 2.0 mi NE 6.9 mph - 0.03 in Rain Light Rain
4:48 AM 50.0 °F 48.2 °F 94% 30.27 in 1.8 mi NNE 6.9 mph - 0.00 in   Overcast
4:53 AM 50.0 °F 48.9 °F 96% 30.27 in 2.5 mi NNE 9.2 mph - 0.00 in   Overcast
5:24 AM 50.0 °F 48.2 °F 94% 30.27 in 1.8 mi ENE 6.9 mph - N/A   Overcast
5:37 AM 50.0 °F 48.2 °F 94% 30.26 in 2.0 mi ENE 10.4 mph - 0.00 in Rain Light Rain
5:53 AM 50.0 °F 48.9 °F 96% 30.25 in 2.5 mi ENE 9.2 mph - 0.01 in Rain Light Rain
6:02 AM 50.0 °F 48.2 °F 94% 30.25 in 3.0 mi ENE 6.9 mph - 0.00 in Rain Light Rain
6:30 AM 50.0 °F 48.2 °F 94% 30.25 in 2.5 mi ENE 8.1 mph - 0.00 in Rain Light Rain
6:53 AM 50.0 °F 48.9 °F 96% 30.25 in 2.5 mi NE 5.8 mph - 0.00 in Rain Light Rain
7:45 AM 50.0 °F 48.2 °F 94% 30.26 in 3.0 mi NE 9.2 mph - 0.01 in Rain Light Rain
7:53 AM 50.0 °F 48.0 °F 93% 30.26 in 2.0 mi NE 5.8 mph - 0.02 in Rain Rain
8:06 AM 50.0 °F 48.2 °F 94% 30.26 in 3.0 mi ENE 6.9 mph - 0.00 in Rain Light Rain
8:36 AM 50.0 °F 48.2 °F 94% 30.26 in 1.8 mi ENE 6.9 mph - 0.03 in Rain Heavy Rain
8:53 AM 50.0 °F 48.9 °F 96% 30.26 in 1.5 mi NE 8.1 mph - 0.07 in Rain Heavy Rain
9:06 AM 50.0 °F 48.2 °F 94% 30.27 in 2.5 mi ENE 5.8 mph - 0.01 in Rain Light Rain
9:15 AM 50.0 °F 48.2 °F 94% 30.27 in 3.0 mi NE 5.8 mph - 0.01 in Rain Light Rain
9:23 AM 51.8 °F 48.2 °F 88% 30.27 in 2.5 mi NE 8.1 mph - 0.02 in Rain Light Rain
9:44 AM 51.8 °F 48.2 °F 88% 30.28 in 1.5 mi NE 6.9 mph - 0.04 in Rain Rain
9:50 AM 51.8 °F 48.2 °F 88% 30.27 in 3.0 mi East 9.2 mph - 0.04 in Rain Light Rain
9:53 AM 51.1 °F 48.9 °F 92% 30.27 in 4.0 mi ENE 6.9 mph - 0.04 in Rain Light Rain
10:53 AM 51.1 °F 48.9 °F 92% 30.27 in 5.0 mi NE 6.9 mph - 0.01 in   Overcast
11:08 AM 51.8 °F 48.2 °F 88% 30.26 in 2.0 mi NE 6.9 mph - 0.00 in Rain Light Rain
11:17 AM 51.8 °F 48.2 °F 88% 30.25 in 1.5 mi NE 6.9 mph - 0.01 in Rain Light Rain
11:53 AM 50.0 °F 48.9 °F 96% 30.24 in 1.5 mi NE 8.1 mph - 0.03 in Rain Rain
12:04 PM 50.0 °F 48.2 °F 94% 30.23 in 3.0 mi ENE 8.1 mph - 0.01 in Rain Light Rain
12:43 PM 50.0 °F 48.2 °F 94% 30.22 in 1.8 mi Variable 4.6 mph - 0.03 in Rain Light Rain
12:53 PM 50.0 °F 48.9 °F 96% 30.22 in 1.5 mi NE 5.8 mph - 0.04 in Rain Light Rain
1:14 PM 50.0 °F 48.2 °F 94% 30.21 in 2.5 mi NE 8.1 mph - 0.01 in Rain Light Rain
1:44 PM 50.0 °F 48.2 °F 94% 30.19 in 3.0 mi NE 8.1 mph - 0.02 in Rain Light Rain
1:51 PM 50.0 °F 48.2 °F 94% 30.19 in 2.0 mi NE 4.6 mph - 0.02 in Rain Light Rain
1:53 PM 50.0 °F 48.9 °F 96% 30.19 in 2.0 mi Variable 3.5 mph - 0.02 in Rain Light Rain
1:58 PM 50.0 °F 48.2 °F 94% 30.19 in 3.0 mi NE 6.9 mph - 0.01 in Rain Light Rain
2:23 PM 50.0 °F 48.2 °F 94% 30.19 in 2.5 mi NE 5.8 mph - 0.01 in Rain Light Rain
2:39 PM 51.8 °F 48.2 °F 88% 30.20 in 5.0 mi NNE 5.8 mph - 0.01 in   Overcast
3:08 PM 51.8 °F 48.2 °F 88% 30.19 in 7.0 mi NE 6.9 mph - N/A   Overcast
3:53 PM 51.1 °F 48.9 °F 92% 30.18 in 7.0 mi NE 5.8 mph - 0.00 in Rain Light Rain
4:53 PM 51.1 °F 48.9 °F 92% 30.18 in 10.0 mi NNE 4.6 mph - 0.00 in   Overcast
5:53 PM 51.1 °F 48.9 °F 92% 30.18 in 6.0 mi ENE 5.8 mph - 0.00 in Rain Light Rain
6:53 PM 51.1 °F 48.9 °F 92% 30.20 in 6.0 mi NNE 3.5 mph - 0.01 in   Overcast
7:53 PM 51.1 °F 48.9 °F 92% 30.20 in 3.0 mi NE 3.5 mph - 0.01 in Rain Light Rain
8:53 PM 51.1 °F 50.0 °F 96% 30.19 in 4.0 mi North 3.5 mph - 0.01 in Rain Light Rain
9:53 PM 51.1 °F 50.0 °F 96% 30.19 in 4.0 mi North 3.5 mph - 0.01 in Rain Light Rain
10:53 PM 52.0 °F 50.0 °F 93% 30.20 in 6.0 mi North 4.6 mph - 0.01 in   Overcast
11:53 PM 51.1 °F 50.0 °F 96% 30.19 in 4.0 mi North 3.5 mph - 0.00 in   Overcast